Regional Weather Roundup
Issued by NWS

Home | Current Version | Previous Version | Graphics & Text | Print | Product List | Glossary On
Versions: 1 2 3 4 5 6 7 8 9 10 11 12 13 14 15 16 17 18 19 20 21 22 23 24 25 26 27 28 29 30 31 32 33 34 35 36 37 38 39 40 41 42 43 44 45 46 47 48 49
000
ASUS45 KCYS 301610
RWRWY

WYOMING REGIONAL WEATHER ROUNDUP
NATIONAL WEATHER SERVICE CHEYENNE WY
1000 AM MDT TUE SEP 30 2014

NOTE:  "FAIR" INDICATES FEW OR NO CLOUDS BELOW 12,000 FEET
WITH NO SIGNIFICANT WEATHER AND/OR OBSTRUCTIONS TO VISIBILITY.

WYZ001-301700-
YELLOWSTONE NATIONAL PARK

CITY           SKY/WX    TMP DP  RH WIND       PRES   REMARKS
LK YELLOWSTONE   N/A     40  34  79 W6        29.94S
W YELLOWSTONE  NOT AVBL

$$
WYZ002>013-054>058-071-098>099-301700-
NORTHERN WYOMING

CITY           SKY/WX    TMP DP  RH WIND       PRES   REMARKS
JACKSON        MOSUNNY   45  43  93 S6        29.91F
CODY           PTSUNNY   55  39  54 NE7       29.78S
GREYBULL       PTSUNNY   50  46  86 CALM      29.75S
WORLAND        CLOUDY    50  45  83 S3        29.76S
SHERIDAN       CLOUDY    55  43  63 N17       29.72R
BUFFALO        CLOUDY    53  42  66 N21       29.73S
GILLETTE       LGT RAIN  51  49  92 NW15      29.69R
HULETT         DRIZZLE   52  50  93 NW7       29.63
NEWCASTLE      DRIZZLE   50  50 100 W22G30    29.62

$$
WYZ014>020-022>026-101>103-301700-
CENTRAL WYOMING

CITY           SKY/WX    TMP DP  RH WIND       PRES   REMARKS
BIG PINEY      CLOUDY    43  38  82 CALM      29.95S
PINEDALE       CLOUDY    45  37  76 NW8       29.95S
DUBOIS         CLOUDY    45  34  65 N18       29.86F
LANDER         MOSUNNY   55  38  52 NE3       29.81R
RIVERTON       SUNNY     56  36  47 W15G26    29.81S
CASPER         CLOUDY    52  38  58 SW15G23   29.79S
DOUGLAS        PTSUNNY   57  37  47 W23G35    29.75R

$$
WYZ021-027>030-104>119-301700-
SOUTHERN WYOMING

CITY           SKY/WX    TMP DP  RH WIND       PRES   REMARKS
EVANSTON       LGT RAIN  43  42  97 SW10      30.03R
KEMMERER       CLOUDY    43  41  93 W17G24    29.98R
FORT BRIDGER     N/A     45  45  99 W17G23    30.02F
ROCK SPRINGS   CLOUDY    45  39  79 W17       29.97R
DIXON          CLOUDY    47  40  75 SW12      30.01S
RAWLINS        CLOUDY    47  38  71 SW26G35   29.92F
SARATOGA       CLOUDY    45  37  76 W18       29.97R
LARAMIE        CLOUDY    47  32  56 W20       29.92R
CHEYENNE       MOSUNNY   56  34  43 W29G36    29.88R
TORRINGTON     CLOUDY    56  42  59 W18G28    29.72S
PINE BLUFFS    FAIR      59  37  44 W24G32    29.84S

$$


USA.gov is the U.S. government's official web portal to all federal, state and local government web resources and services.